Time,TemperatureF,DewpointF,PressureIn,WindDirection,WindDirectionDegrees,WindSpeedMPH,WindSpeedGustMPH,Humidity,HourlyPrecipIn,Conditions,Clouds,dailyrainin,SoftwareType,DateUTC
2013-01-17 00:00:00,44.8,41.8,29.57,SSE,147,0.0,1.0,89,0.01,RA,,0.00,WeatherDisplay:10.37,2013-01-16 23:00:00,
2013-01-17 00:10:00,44.8,41.8,29.57,SSE,154,1.0,3.0,89,0.01,RA,,0.01,WeatherDisplay:10.37,2013-01-16 23:10:00,
2013-01-17 00:20:00,44.5,41.7,29.57,West,268,0.0,4.0,90,0.02,RA,,0.02,WeatherDisplay:10.37,2013-01-16 23:20:00,
2013-01-17 00:30:00,44.4,41.7,29.57,WSW,251,0.0,3.0,90,0.01,RA,,0.03,WeatherDisplay:10.37,2013-01-16 23:30:00,
2013-01-17 00:40:00,44.4,41.9,29.56,SSE,152,1.0,3.0,91,0.01,RA,,0.04,WeatherDisplay:10.37,2013-01-16 23:40:00,
2013-01-17 00:50:00,44.7,42.5,29.56,South,173,0.0,4.0,92,0.02,RA,,0.05,WeatherDisplay:10.37,2013-01-16 23:50:00,
2013-01-17 01:00:00,45.1,42.9,29.56,SSE,166,0.0,2.0,92,0.01,RA,,0.06,WeatherDisplay:10.37,2013-01-17 00:00:00,
2013-01-17 01:10:00,45.1,43.2,29.56,South,169,0.0,2.0,93,0.00,,,0.06,WeatherDisplay:10.37,2013-01-17 00:10:00,
2013-01-17 01:20:00,45.1,43.2,29.55,South,170,0.0,1.0,93,0.01,RA,,0.07,WeatherDisplay:10.37,2013-01-17 00:20:00,
2013-01-17 01:30:00,45.1,43.2,29.55,South,170,0.0,0.0,93,0.01,RA,,0.08,WeatherDisplay:10.37,2013-01-17 00:30:00,
2013-01-17 01:40:00,45.3,43.4,29.54,South,170,0.0,0.0,93,0.01,RA,,0.09,WeatherDisplay:10.37,2013-01-17 00:40:00,
2013-01-17 01:50:00,45.4,43.5,29.54,South,170,0.0,1.0,93,0.01,RA,,0.09,WeatherDisplay:10.37,2013-01-17 00:50:00,
2013-01-17 02:00:00,45.6,44.0,29.54,South,170,0.0,0.0,94,0.02,RA,,0.11,WeatherDisplay:10.37,2013-01-17 01:00:00,
2013-01-17 02:10:00,45.7,43.8,29.53,South,170,0.0,0.0,93,0.01,RA,,0.12,WeatherDisplay:10.37,2013-01-17 01:10:00,
2013-01-17 02:20:00,45.8,44.2,29.53,SW,222,0.0,3.0,94,0.01,RA,,0.13,WeatherDisplay:10.37,2013-01-17 01:20:00,
2013-01-17 02:30:00,45.8,43.9,29.53,SW,223,0.0,1.0,93,0.01,RA,,0.13,WeatherDisplay:10.37,2013-01-17 01:30:00,
2013-01-17 02:40:00,45.8,44.2,29.51,South,174,0.0,3.0,94,0.01,RA,,0.14,WeatherDisplay:10.37,2013-01-17 01:40:00,
2013-01-17 02:50:00,45.9,44.3,29.51,South,169,0.0,1.0,94,0.00,CLR,,0.14,WeatherDisplay:10.37,2013-01-17 01:50:00,
2013-01-17 03:20:00,45.8,44.2,29.50,South,170,0.0,1.0,94,0.02,RA,,0.19,WeatherDisplay:10.37,2013-01-17 02:20:00,
2013-01-17 03:30:00,45.9,44.2,29.49,South,170,0.0,1.0,94,0.02,RA,,0.20,WeatherDisplay:10.37,2013-01-17 02:30:00,
2013-01-17 03:40:00,46.0,44.6,29.48,SSE,164,0.0,1.0,95,0.02,RA,,0.23,WeatherDisplay:10.37,2013-01-17 02:40:00,
2013-01-17 03:50:00,46.1,44.7,29.48,SSE,164,0.0,1.0,95,0.01,RA,,0.24,WeatherDisplay:10.37,2013-01-17 02:50:00,
2013-01-17 04:00:00,46.1,44.8,29.46,SSE,162,0.0,3.0,95,0.02,RA,,0.25,WeatherDisplay:10.37,2013-01-17 03:00:00,
2013-01-17 04:10:00,46.1,44.7,29.46,East,93,0.0,3.0,95,0.01,RA,,0.26,WeatherDisplay:10.37,2013-01-17 03:10:00,
2013-01-17 04:20:00,46.2,44.8,29.45,NNE,28,0.0,1.0,95,0.04,RA,,0.30,WeatherDisplay:10.37,2013-01-17 03:20:00,
2013-01-17 04:30:00,46.3,44.9,29.45,NNE,19,1.0,4.0,95,0.00,,,0.30,WeatherDisplay:10.37,2013-01-17 03:30:00,
2013-01-17 04:40:00,46.3,44.9,29.45,East,97,0.0,3.0,95,0.01,RA,,0.31,WeatherDisplay:10.37,2013-01-17 03:40:00,
2013-01-17 04:50:00,46.2,44.8,29.45,East,87,0.0,1.0,95,0.00,CLR,,0.31,WeatherDisplay:10.37,2013-01-17 03:50:00,
2013-01-17 05:00:00,46.1,44.7,29.45,East,87,0.0,1.0,95,0.01,RA,,0.31,WeatherDisplay:10.37,2013-01-17 04:00:00,
2013-01-17 05:10:00,45.6,43.9,29.45,NW,319,8.0,12.0,94,0.01,RA,,0.32,WeatherDisplay:10.37,2013-01-17 04:10:00,
2013-01-17 05:20:00,45.7,44.4,29.45,WNW,297,1.0,5.0,95,0.01,RA,,0.33,WeatherDisplay:10.37,2013-01-17 04:20:00,
2013-01-17 05:30:00,45.6,44.3,29.44,NW,323,0.0,1.0,95,0.01,RA,,0.34,WeatherDisplay:10.37,2013-01-17 04:30:00,
2013-01-17 05:40:00,45.7,44.4,29.45,NW,323,0.0,0.0,95,0.00,CLR,,0.34,WeatherDisplay:10.37,2013-01-17 04:40:00,
2013-01-17 05:50:00,45.7,44.4,29.45,NW,323,0.0,0.0,95,0.00,CLR,,0.34,WeatherDisplay:10.37,2013-01-17 04:50:00,
2013-01-17 06:10:00,44.9,43.6,29.45,NE,41,0.0,3.0,95,0.01,RA,,0.35,WeatherDisplay:10.37,2013-01-17 05:10:00,
2013-01-17 06:20:00,44.2,42.6,29.47,WNW,300,9.0,15.0,94,0.03,RA,,0.38,WeatherDisplay:10.37,2013-01-17 05:20:00,
2013-01-17 06:30:00,43.6,42.3,29.47,NW,326,3.0,12.0,95,0.04,RA,,0.42,WeatherDisplay:10.37,2013-01-17 05:30:00,
2013-01-17 06:40:00,43.6,42.3,29.46,NW,312,1.0,8.0,95,0.01,RA,,0.43,WeatherDisplay:10.37,2013-01-17 05:40:00,
2013-01-17 06:50:00,43.8,42.5,29.46,NNW,346,0.0,3.0,95,0.00,CLR,,0.43,WeatherDisplay:10.37,2013-01-17 05:50:00,
2013-01-17 07:00:00,44.1,43.0,29.46,North,350,0.0,1.0,96,0.00,CLR,,0.43,WeatherDisplay:10.37,2013-01-17 06:00:00,
2013-01-17 07:10:00,44.4,43.3,29.46,North,350,0.0,2.0,96,0.00,CLR,,0.43,WeatherDisplay:10.37,2013-01-17 06:10:00,
2013-01-17 07:20:00,44.6,43.5,29.46,North,350,0.0,1.0,96,0.00,CLR,,0.43,WeatherDisplay:10.37,2013-01-17 06:20:00,
2013-01-17 07:30:00,44.5,43.2,29.46,North,350,0.0,1.0,95,0.00,CLR,,0.43,WeatherDisplay:10.37,2013-01-17 06:30:00,
2013-01-17 07:40:00,44.6,43.5,29.46,North,350,0.0,0.0,96,0.00,CLR,,0.43,WeatherDisplay:10.37,2013-01-17 06:40:00,
2013-01-17 07:50:00,44.8,43.7,29.47,North,350,0.0,0.0,96,0.00,CLR,,0.43,WeatherDisplay:10.37,2013-01-17 06:50:00,
2013-01-17 08:00:00,45.1,44.0,29.47,North,350,0.0,0.0,96,0.00,CLR,,0.43,WeatherDisplay:10.37,2013-01-17 07:00:00,
2013-01-17 08:10:00,45.4,44.3,29.48,NNW,348,0.0,1.0,96,0.00,CLR,,0.43,WeatherDisplay:10.37,2013-01-17 07:10:00,
2013-01-17 08:20:00,45.8,44.7,29.48,NNW,332,0.0,1.0,96,0.00,CLR,,0.43,WeatherDisplay:10.37,2013-01-17 07:20:00,
2013-01-17 08:30:00,46.1,45.0,29.48,NNW,332,0.0,1.0,96,0.01,RA,,0.43,WeatherDisplay:10.37,2013-01-17 07:30:00,
2013-01-17 08:40:00,46.2,44.8,29.48,NNW,333,0.0,1.0,95,0.00,,,0.43,WeatherDisplay:10.37,2013-01-17 07:40:00,
2013-01-17 08:50:00,46.3,44.9,29.48,NNW,336,0.0,1.0,95,0.00,CLR,,0.43,WeatherDisplay:10.37,2013-01-17 07:50:00,
2013-01-17 09:00:00,46.5,45.1,29.48,NNW,336,0.0,0.0,95,0.00,CLR,,0.43,WeatherDisplay:10.37,2013-01-17 08:00:00,
2013-01-17 09:10:00,46.7,45.4,29.48,NNW,336,0.0,1.0,95,0.00,CLR,,0.43,WeatherDisplay:10.37,2013-01-17 08:10:00,
2013-01-17 09:20:00,46.9,45.6,29.48,NNW,336,0.0,1.0,95,0.00,CLR,,0.43,WeatherDisplay:10.37,2013-01-17 08:20:00,
2013-01-17 09:30:00,47.3,45.9,29.48,NNW,336,0.0,0.0,95,0.00,CLR,,0.43,WeatherDisplay:10.37,2013-01-17 08:30:00,
2013-01-17 09:40:00,47.7,46.4,29.48,NNW,336,0.0,0.0,95,0.00,CLR,,0.43,WeatherDisplay:10.37,2013-01-17 08:40:00,
2013-01-17 09:50:00,48.2,46.8,29.48,NNW,336,0.0,1.0,95,0.00,CLR,,0.43,WeatherDisplay:10.37,2013-01-17 08:50:00,
2013-01-17 10:00:00,48.6,47.2,29.48,NNW,336,0.0,0.0,95,0.00,CLR,,0.43,WeatherDisplay:10.37,2013-01-17 09:00:00,
2013-01-17 10:10:00,48.9,47.2,29.48,NNW,336,0.0,1.0,94,0.00,CLR,,0.43,WeatherDisplay:10.37,2013-01-17 09:10:00,
2013-01-17 10:20:00,49.2,47.5,29.48,NNW,336,0.0,0.0,94,0.00,CLR,,0.43,WeatherDisplay:10.37,2013-01-17 09:20:00,
2013-01-17 10:30:00,49.5,47.8,29.48,NNW,336,0.0,1.0,94,0.00,CLR,,0.43,WeatherDisplay:10.37,2013-01-17 09:30:00,
2013-01-17 10:40:00,49.8,47.9,29.47,NNW,337,0.0,1.0,93,0.00,CLR,,0.43,WeatherDisplay:10.37,2013-01-17 09:40:00,
2013-01-17 10:50:00,49.9,47.7,29.47,NNW,337,0.0,1.0,92,0.00,CLR,,0.43,WeatherDisplay:10.37,2013-01-17 09:50:00,
2013-01-17 11:00:00,49.8,46.7,29.47,SSW,204,1.0,3.0,89,0.00,CLR,,0.43,WeatherDisplay:10.37,2013-01-17 10:00:00,
2013-01-17 11:10:00,50.1,46.7,29.47,South,190,1.0,3.0,88,0.00,CLR,,0.43,WeatherDisplay:10.37,2013-01-17 10:10:00,
2013-01-17 11:20:00,50.6,46.6,29.47,SSW,195,1.0,4.0,86,0.00,CLR,,0.43,WeatherDisplay:10.37,2013-01-17 10:20:00,
2013-01-17 11:30:00,50.9,45.9,29.46,SSW,212,2.0,6.0,83,0.00,CLR,,0.43,WeatherDisplay:10.37,2013-01-17 10:30:00,
2013-01-17 11:40:00,51.3,46.3,29.46,WSW,244,0.0,4.0,83,0.00,CLR,,0.43,WeatherDisplay:10.37,2013-01-17 10:40:00,
2013-01-17 11:50:00,51.5,45.5,29.46,SSW,205,1.0,5.0,80,0.00,CLR,,0.43,WeatherDisplay:10.37,2013-01-17 10:50:00,
2013-01-17 12:00:00,51.1,43.8,29.46,WSW,244,3.0,9.0,76,0.00,CLR,,0.43,WeatherDisplay:10.37,2013-01-17 11:00:00,
2013-01-17 12:10:00,51.4,45.1,29.46,WSW,256,1.0,8.0,79,0.00,CLR,,0.43,WeatherDisplay:10.37,2013-01-17 11:10:00,
2013-01-17 12:20:00,51.4,44.1,29.45,WSW,238,3.0,7.0,76,0.00,CLR,,0.43,WeatherDisplay:10.37,2013-01-17 11:20:00,
2013-01-17 12:30:00,51.4,44.4,29.45,SW,229,2.0,10.0,77,0.00,CLR,,0.43,WeatherDisplay:10.37,2013-01-17 11:30:00,
2013-01-17 12:40:00,51.4,44.4,29.45,WSW,243,1.0,6.0,77,0.00,CLR,,0.43,WeatherDisplay:10.37,2013-01-17 11:40:00,
2013-01-17 12:50:00,51.5,44.2,29.45,SSW,209,2.0,8.0,76,0.00,CLR,,0.43,WeatherDisplay:10.37,2013-01-17 11:50:00,
2013-01-17 13:00:00,51.7,44.7,29.44,SW,219,1.0,3.0,77,0.00,CLR,,0.43,WeatherDisplay:10.37,2013-01-17 12:00:00,
2013-01-17 13:10:00,51.6,44.6,29.44,SSW,213,2.0,8.0,77,0.00,CLR,,0.43,WeatherDisplay:10.37,2013-01-17 12:10:00,
2013-01-17 13:20:00,51.4,43.7,29.44,SW,215,5.0,10.0,75,0.00,CLR,,0.43,WeatherDisplay:10.37,2013-01-17 12:20:00,
2013-01-17 13:30:00,51.4,43.7,29.44,SSW,213,3.0,8.0,75,0.00,CLR,,0.43,WeatherDisplay:10.37,2013-01-17 12:30:00,
2013-01-17 13:40:00,51.4,41.9,29.43,SW,229,3.0,10.0,70,0.00,CLR,,0.43,WeatherDisplay:10.37,2013-01-17 12:40:00,
2013-01-17 13:50:00,51.4,41.5,29.44,WSW,243,3.0,9.0,69,0.00,CLR,,0.43,WeatherDisplay:10.37,2013-01-17 12:50:00,
2013-01-17 14:00:00,51.5,42.0,29.44,SSW,205,0.0,7.0,70,0.00,CLR,,0.43,WeatherDisplay:10.37,2013-01-17 13:00:00,
2013-01-17 14:10:00,51.9,42.1,29.43,WSW,242,1.0,5.0,69,0.00,CLR,,0.43,WeatherDisplay:10.37,2013-01-17 13:10:00,
2013-01-17 14:20:00,51.9,42.0,29.43,SW,223,1.0,7.0,69,0.00,CLR,,0.43,WeatherDisplay:10.37,2013-01-17 13:20:00,
2013-01-17 14:30:00,52.2,41.2,29.43,SW,218,2.0,6.0,66,0.00,CLR,,0.43,WeatherDisplay:10.37,2013-01-17 13:30:00,
2013-01-17 14:40:00,51.6,40.2,29.43,SW,228,2.0,8.0,65,0.00,CLR,,0.43,WeatherDisplay:10.37,2013-01-17 13:40:00,
2013-01-17 14:50:00,51.5,40.9,29.42,WSW,240,0.0,6.0,67,0.00,CLR,,0.43,WeatherDisplay:10.37,2013-01-17 13:50:00,
2013-01-17 15:00:00,51.5,40.5,29.42,WSW,258,0.0,3.0,66,0.00,CLR,,0.43,WeatherDisplay:10.37,2013-01-17 14:00:00,
2013-01-17 15:10:00,51.4,40.4,29.42,WSW,253,1.0,4.0,66,0.00,CLR,,0.43,WeatherDisplay:10.37,2013-01-17 14:10:00,
2013-01-17 15:20:00,50.9,41.1,29.43,WSW,237,1.0,7.0,69,0.00,CLR,,0.43,WeatherDisplay:10.37,2013-01-17 14:20:00,
2013-01-17 15:30:00,50.5,41.1,29.43,WSW,240,2.0,7.0,70,0.00,CLR,,0.43,WeatherDisplay:10.37,2013-01-17 14:30:00,
2013-01-17 15:40:00,50.3,41.3,29.42,SW,224,0.0,5.0,71,0.00,CLR,,0.43,WeatherDisplay:10.37,2013-01-17 14:40:00,
2013-01-17 15:50:00,50.3,41.3,29.42,WSW,253,0.0,6.0,71,0.00,CLR,,0.43,WeatherDisplay:10.37,2013-01-17 14:50:00,
2013-01-17 16:00:00,50.3,40.9,29.42,SW,236,1.0,3.0,70,0.00,CLR,,0.43,WeatherDisplay:10.37,2013-01-17 15:00:00,
2013-01-17 16:10:00,50.3,40.5,29.42,SW,234,1.0,5.0,69,0.00,CLR,,0.43,WeatherDisplay:10.37,2013-01-17 15:10:00,
2013-01-17 16:20:00,50.1,40.3,29.42,WSW,256,3.0,6.0,69,0.00,CLR,,0.43,WeatherDisplay:10.37,2013-01-17 15:20:00,
2013-01-17 16:30:00,50.0,40.2,29.42,SW,230,1.0,6.0,69,0.00,CLR,,0.43,WeatherDisplay:10.37,2013-01-17 15:30:00,
2013-01-17 16:40:00,50.0,40.2,29.42,South,187,0.0,4.0,69,0.00,CLR,,0.43,WeatherDisplay:10.37,2013-01-17 15:40:00,
2013-01-17 16:50:00,49.9,40.1,29.42,South,185,1.0,4.0,69,0.00,CLR,,0.43,WeatherDisplay:10.37,2013-01-17 15:50:00,
2013-01-17 17:00:00,49.8,40.4,29.42,SSW,196,0.0,2.0,70,0.00,CLR,,0.43,WeatherDisplay:10.37,2013-01-17 16:00:00,
2013-01-17 17:10:00,49.9,40.9,29.42,South,186,0.0,3.0,71,0.00,CLR,,0.43,WeatherDisplay:10.37,2013-01-17 16:10:00,
2013-01-17 17:20:00,49.9,40.9,29.42,South,191,0.0,3.0,71,0.00,CLR,,0.43,WeatherDisplay:10.37,2013-01-17 16:20:00,
2013-01-17 17:30:00,49.8,41.1,29.41,SSW,207,0.0,3.0,72,0.00,CLR,,0.43,WeatherDisplay:10.37,2013-01-17 16:30:00,
2013-01-17 17:40:00,49.8,41.5,29.41,SSW,207,0.0,2.0,73,0.00,CLR,,0.43,WeatherDisplay:10.37,2013-01-17 16:40:00,
2013-01-17 17:50:00,49.6,40.9,29.41,SSW,197,1.0,3.0,72,0.00,CLR,,0.43,WeatherDisplay:10.37,2013-01-17 16:50:00,
2013-01-17 18:00:00,49.4,40.7,29.40,South,171,0.0,3.0,72,0.00,CLR,,0.43,WeatherDisplay:10.37,2013-01-17 17:00:00,
2013-01-17 18:10:00,49.4,40.7,29.40,SSE,167,0.0,2.0,72,0.00,CLR,,0.43,WeatherDisplay:10.37,2013-01-17 17:10:00,
2013-01-17 18:20:00,49.1,40.8,29.40,SSE,149,1.0,4.0,73,0.00,CLR,,0.43,WeatherDisplay:10.37,2013-01-17 17:20:00,
2013-01-17 18:30:00,49.0,40.0,29.40,South,173,1.0,6.0,71,0.00,CLR,,0.43,WeatherDisplay:10.37,2013-01-17 17:30:00,
2013-01-17 18:40:00,48.4,39.8,29.39,WSW,257,0.0,6.0,72,0.00,CLR,,0.43,WeatherDisplay:10.37,2013-01-17 17:40:00,
2013-01-17 18:50:00,48.3,42.4,29.37,ENE,62,1.0,5.0,80,0.00,CLR,,0.43,WeatherDisplay:10.37,2013-01-17 17:50:00,
2013-01-17 19:00:00,48.3,43.7,29.38,ESE,116,1.0,4.0,84,0.00,CLR,,0.43,WeatherDisplay:10.37,2013-01-17 18:00:00,
2013-01-17 19:10:00,47.8,43.6,29.42,West,268,6.0,12.0,85,0.01,RA,,0.44,WeatherDisplay:10.37,2013-01-17 18:10:00,
2013-01-17 22:30:00,41.3,39.2,29.42,SSW,202,0.0,1.0,92,0.00,CLR,,0.64,WeatherDisplay:10.37,2013-01-17 21:30:00,
2013-01-17 22:40:00,41.4,39.3,29.41,ESE,107,0.0,2.0,92,0.00,CLR,,0.64,WeatherDisplay:10.37,2013-01-17 21:40:00,
2013-01-17 22:50:00,41.7,39.6,29.41,SSE,149,3.0,6.0,92,0.00,CLR,,0.64,WeatherDisplay:10.37,2013-01-17 21:50:00,
2013-01-17 23:00:00,42.2,39.5,29.41,SW,219,1.0,7.0,90,0.00,CLR,,0.64,WeatherDisplay:10.37,2013-01-17 22:00:00,
2013-01-17 23:10:00,42.8,38.9,29.41,SW,234,2.0,10.0,86,0.00,CLR,,0.64,WeatherDisplay:10.37,2013-01-17 22:10:00,
2013-01-17 23:20:00,43.1,38.6,29.41,WSW,244,5.0,12.0,84,0.00,CLR,,0.64,WeatherDisplay:10.37,2013-01-17 22:20:00,
2013-01-17 23:30:00,42.9,38.4,29.41,WSW,244,3.0,15.0,84,0.00,CLR,,0.64,WeatherDisplay:10.37,2013-01-17 22:30:00,
2013-01-17 23:40:00,42.7,37.9,29.41,WSW,244,9.0,16.0,83,0.00,CLR,,0.64,WeatherDisplay:10.37,2013-01-17 22:40:00,
2013-01-17 23:50:00,42.4,37.3,29.41,WSW,251,8.0,15.0,82,0.00,CLR,,0.64,WeatherDisplay:10.37,2013-01-17 22:50:00,